Content
SEND FEEDBACK

Daily
Averages
Monthly
Summary
France

DIJON, FRANCE


Home > Europe > France
Elevation: 728 feet     Latitude: 47 16N     Longitude: 005 05E

WEATHER
 
SELECT A DAY
Number of Records: 270,308;   Date Range: 7/1/96 - 7/27/14
 
SHARE

PRINT THIS DATA

[ ← Previous Day ]
WEATHER ALMANAC - JANUARY 23, 2013
[ Next Day → ]
[ °C ]   °F
Weather ElementAverageHighLow
Temperature34 °F42.8 °F (3:00 pm)28 °F (7:00 am)
Dewpoint30.5 °F33.8 °F (3:00 pm)26.6 °F (5:00 am)
Humidity87.4 %100 % (12:30 am)65 % (1:00 pm)
Barometer29.68 in29.77 in (7:00 pm)29.62 in (4:00 am)
Wind Speed6.4 mph10.4 mph (11:00 pm)
Weather ElementAverage
Visibility6.3 mi
Wind DirectionWSW (262.7 °)

Weather ElementTotal
Precipitation---
Heating Degree Days29.6 (Base 65)
Averaged from 51 records on January 23, 2013
WEATHER CONDITIONS BREAKOUT
WIND DIRECTION BREAKOUT
WEATHER BY HOUR - JANUARY 23, 2013
[ °C ]   °F
Local TimeTemperatureDewpointHumidityBarometerVisibilityWind DirectionWind SpeedGust SpeedPrecipitationEventsConditions
12:30 AM30.2 °F30.2 °F100 %29.65 in6.2 miNNW (330°)2.3 mph
1:00 AM31.0 °F30.0 °F93 %29.70 in5.0 miNNW (340°)3.5 mphClear
1:00 AM32.0 °F30.2 °F93 %29.65 in5.0 miNNW (340°)3.5 mph
1:30 AM32.0 °F30.2 °F93 %29.65 in5.0 miNNW (340°)5.8 mph
2:00 AM30.2 °F30.2 °F100 %29.65 in6.2 miNW (320°)4.6 mph
2:30 AM32.0 °F30.2 °F93 %29.65 in6.2 miNNW (340°)5.8 mph
3:00 AM30.2 °F30.2 °F100 %29.65 in6.2 miNNE (20°)3.5 mph
3:30 AM30.2 °F28.4 °F93 %29.65 in6.2 miNorth (360°)5.8 mph
4:00 AM30.2 °F28.4 °F93 %29.62 in6.2 miNorth (360°)3.5 mph
4:30 AM28.4 °F28.4 °F100 %29.62 in6.2 miNorth (10°)4.6 mph
5:00 AM28.4 °F26.6 °F93 %29.62 in5.0 miNorth (360°)4.6 mph
5:30 AM28.4 °F26.6 °F93 %29.62 in6.2 miNNW (340°)5.8 mph
6:00 AM28.4 °F28.4 °F100 %29.62 in6.2 miNNW (330°)5.8 mph
6:30 AM28.4 °F28.4 °F100 %29.62 in6.2 miNNW (340°)4.6 mph
7:00 AM28.0 °F27.0 °F96 %29.69 in9.0 miNNW (340°)3.5 mphClear
7:00 AM28.4 °F26.6 °F93 %29.62 in6.2 miNNW (340°)3.5 mph
7:30 AM28.4 °F26.6 °F93 %29.65 in6.2 miNorth (350°)5.8 mph
8:00 AM28.4 °F26.6 °F93 %29.65 in6.2 miNNW (330°)3.5 mph
8:30 AM28.4 °F26.6 °F93 %29.65 in6.2 miNNW (330°)4.6 mph
9:00 AM28.4 °F26.6 °F93 %29.65 in6.2 miNorth (350°)8.1 mph
9:30 AM30.2 °F30.2 °F100 %29.68 in6.2 miNorth (350°)8.1 mph
10:00 AM32.0 °F30.2 °F93 %29.68 in6.2 miNNW (340°)8.1 mph
10:30 AM33.8 °F32.0 °F93 %29.68 in6.2 miNorth (350°)9.2 mph
11:00 AM33.8 °F30.2 °F87 %29.68 in6.2 miNorth (360°)8.1 mph
11:30 AM33.8 °F32.0 °F93 %29.71 in6.2 miNorth (350°)8.1 mph
12:00 PM35.6 °F32.0 °F87 %29.68 in6.2 miNorth (350°)9.2 mph
12:30 PM37.4 °F32.0 °F81 %29.68 in6.2 miNorth (350°)9.2 mph
1:00 PM39.0 °F31.0 °F65 %29.72 in13.0 miNorth (350°)9.2 mphClear
1:00 PM39.2 °F32.0 °F75 %29.68 in6.2 miNorth (350°)9.2 mph
1:30 PM41.0 °F32.0 °F70 %29.68 in6.2 miNorth (360°)9.2 mph
2:00 PM41.0 °F32.0 °F70 %29.68 in6.2 miNorth (360°)8.1 mph
2:30 PM41.0 °F32.0 °F70 %29.68 in6.2 miNorth (10°)8.1 mph
3:00 PM42.8 °F33.8 °F70 %29.68 in6.2 miNorth (350°)8.1 mph
3:30 PM42.8 °F33.8 °F70 %29.68 in6.2 miNorth (350°)6.9 mph
4:00 PM42.8 °F33.8 °F70 %29.68 in6.2 miNorth (10°)5.8 mph
4:30 PM42.8 °F33.8 °F70 %29.68 in6.2 miNorth (10°)4.6 mph
5:00 PM41.0 °F33.8 °F76 %29.68 in6.2 miNNE (30°)3.5 mph
5:30 PM37.4 °F32.0 °F81 %29.71 in6.2 miVariable3.5 mph
6:00 PM37.4 °F32.0 °F81 %29.71 in6.2 miNNW (330°)5.8 mph
6:30 PM37.4 °F32.0 °F81 %29.71 in6.2 miNNW (340°)4.6 mph
7:00 PM36.0 °F32.0 °F79 %29.77 in12.0 miNorth (350°)5.8 mphClear
7:00 PM35.6 °F32.0 °F87 %29.71 in6.2 miNorth (350°)5.8 mph
7:30 PM35.6 °F32.0 °F87 %29.71 in6.2 miNorth (360°)8.1 mphMostly Cloudy
8:00 PM35.6 °F32.0 °F87 %29.74 in6.2 miNorth (350°)8.1 mph
8:30 PM35.6 °F32.0 °F87 %29.71 in6.2 miNorth (360°)8.1 mphOvercast
9:00 PM35.6 °F32.0 °F87 %29.74 in6.2 miNorth (10°)6.9 mphOvercast
9:30 PM35.6 °F32.0 °F87 %29.74 in6.2 miNNE (30°)6.9 mphOvercast
10:00 PM33.8 °F32.0 °F93 %29.74 in6.2 miNNE (30°)8.1 mphOvercast
10:30 PM33.8 °F30.2 °F87 %29.74 in6.2 miNNE (30°)8.1 mphOvercast
11:00 PM32.0 °F28.4 °F87 %29.74 inNNE (30°)10.4 mphOvercast
11:30 PM30.2 °F30.2 °F100 %29.74 in1.5 miNNE (30°)9.2 mphOvercast
Hourly data recorded from LFSD, located miles away from Dijon, France







STORIES FROM OUR PARTNERS